Regional Weather Roundup
Issued by NWS Nashville, TN

Home | Current Version | Previous Version | Text Only | Print | Product List | Glossary On
Versions: 1 2 3 4 5 6 7 8 9 10 11 12 13 14 15 16 17 18 19 20 21 22 23 24 25 26 27
000
ASUS44 KOHX 231410
RWROHX
MIDDLE TENNESSEE HOURLY WEATHER ROUNDUP
NATIONAL WEATHER SERVICE NASHVILLE TN
800 AM CST THU FEB 23 2017

NOTE: "FAIR" INDICATES FEW OR NO CLOUDS BELOW 12,000 FEET WITH
NO SIGNIFICANT WEATHER AND/OR OBSTRUCTIONS TO VISIBILITY.

* THESE REPORTS ARE NOT UNDER NWS QUALITY CONTROL AND MAY NOT
  REPORT WEATHER SUCH AS PRECIPITATION AND FOG.


TNZ005>011-023>034-057-059-062>066-078-080-231500
...NORTHERN MIDDLE TENNESSEE...

CITY           SKY/WX    TMP DP  RH WIND       PRES   REMARKS
CLARKSVILLE    CLOUDY    59  56  89 S5        29.84R
CROSSVILLE     CLOUDY    57  54  89 S6        29.93R
GALLATIN       CLOUDY    54  54 100 CALM      29.90S FOG
DICKSON          N/A     57  56  97 S6        29.86R
LIVINGSTON     MOSUNNY   60  53  77 SW7       29.90R
NASHVILLE      CLOUDY    58  55  90 S6        29.88R
PORTLAND       CLOUDY    59  57  94 S13       29.87R
SMYRNA         CLOUDY    57  57 100 S6        29.89R
SPARTA         SUNNY     61  55  82 S7        29.89R
SPRINGFIELD    CLOUDY    59  57  94 S6        29.85R
WEST NASHVILLE CLOUDY    54  54 100 E3        29.87R
$$
TNZ056-058-060-061-075>077-079-093>097-231500
...SOUTHERN MIDDLE TENNESSEE...

CITY           SKY/WX    TMP DP  RH WIND       PRES   REMARKS
COLUMBIA       PTSUNNY  N/A N/A N/A CALM      29.85S
FAYETTEVILLE   SUNNY     61  57  88 SE5       29.89R
MCMINNVILLE    SUNNY     59  59 100 CALM      29.89S
SHELBYVILLE    SUNNY     63  57  82 SE5       29.89R
TULLAHOMA      SUNNY     59  55  88 S7        29.90R
WINCHESTER     MOSUNNY   61  55  82 SE9       29.90R
$$


...KEY TO REMARKS...
VSB - VISIBILITY IN MILES
WCI - WIND CHILL INDEX
HX  - HEAT INDEX





USA.gov is the U.S. government's official web portal to all federal, state and local government web resources and services.